Home > Weather > Kleppe > Past weeks

Flag for Norway Past Weather in Kleppe, Norway — Yesterday and Last 2 Weeks

Now
57 °F

Scattered clouds.


Feels Like: 57 °F
Forecast: 51 / 64 °F
Wind: 1 mph from Southeast

Location: Stavanger / Sola

Current Time: May 28, 2016 at 8:11:01 AM

Latest Report: May 28, 2016 at 7:00 AM


Visibility: 17 mi

Pressure: 30.14 "Hg

Humidity: 82%

Dew Point: 51 °F

Location of KleppeLocation

Past Weather in Kleppe — Graph

°F

Kleppe Temperature Yesterday

Maximum temperature yesterday: 58 °F (at 4:00 PM)
Minimum temperature yesterday: 46 °F (at 6:00 AM)
Average temperature yesterday: 52 °F

High & Low Weather Summary for the Past Weeks

 TemperatureHumidityPressure
High67 °F (May 25, 5:00 PM)99% (May 23, 1:00 AM)30.18 "Hg (May 23, 1:00 AM)
Low42 °F (May 14, 5:00 AM)37% (May 25, 2:00 PM)29.65 "Hg (May 18, 6:00 PM)
Average51 °F78%29.89 "Hg
* Reported May 13 6:00 AM — May 28 6:00 AM, Kleppe, Weather by CustomWeather, © 2016

Note: Actual official high and low records may vary slightly from our data, if they occured in-between our weather recording intervals... More about our weather records

Advertising

Kleppe Weather History for the Previous 24 Hours

Scroll right to see more
 ConditionsComfort  
Time TempWeatherWind HumidityBarometerVisibility
6:00 AM
Sat, May 28
54 °FLight rain. Overcast.1 mph89%30.15 "Hg17 mi
5:00 AM53 °FRain showers. Partly sunny.1 mph87%30.15 "Hg17 mi
4:00 AM53 °FLots of rain. Overcast.1 mph89%30.15 "Hg5 mi
3:00 AM53 °FDrizzle. Overcast.1 mph84%30.14 "Hg9 mi
2:00 AM54 °FOvercast.1 mph70%30.15 "Hg25 mi
1:00 AM54 °FOvercast.1 mph70%30.14 "Hg28 mi
12:00 AM54 °FOvercast.1 mph69%30.15 "Hg25 mi
11:00 PM
Fri, May 27
54 °FOvercast.1 mph64%30.16 "Hg31 mi
10:00 PM54 °FScattered clouds.2 mph77%30.16 "Hg19 mi
9:00 PM55 °FSunny.3 mph75%30.16 "Hg19 mi
8:00 PM57 °FSunny.3 mph69%30.16 "Hg18 mi
7:00 PM57 °FSunny.5 mph70%30.15 "Hg17 mi
6:00 PM58 °FSunny.6 mph62%30.16 "Hg17 mi
5:00 PM58 °FSunny.5 mph64%30.17 "Hg19 mi
4:00 PM58 °FSunny.5 mph62%30.17 "Hg16 mi
3:00 PM58 °FSunny.5 mph69%30.18 "Hg19 mi
2:00 PM54 °FSunny.5 mph81%30.18 "Hg16 mi
1:00 PM54 °FSunny.5 mph84%30.18 "Hg19 mi
12:00 PM54 °FSunny.3 mph85%30.18 "Hg14 mi
11:00 AM54 °FSunny.3 mph88%30.18 "Hg11 mi
10:00 AM52 °FSunny.3 mph95%30.16 "Hg9 mi
9:00 AM49 °FLow clouds.1 mph98%30.16 "Hg1 mi
8:00 AM47 °FDense fog.1 mph98%30.16 "Hg0 mi
Weather by CustomWeather, © 2016

See weather overviewHow to use our weather pages